EA1IOK-13 Weather Reports


time (UTC)temp
F
wind
direction
speed
knots
gust
knots
rain 1hr
in
rain 24hr
in
rain mn
in
humidity
%
barometer
mb
20260504170714 52 329 7.0 10.4 0.00 0.13 0.06 84 1015.2
20260504170602 52 329 7.0 10.4 0.00 0.13 0.06 84 1015.2
20260504150718 54 204 1.7 2.6 0.02 0.11 0.03 83 1014.6
20260504150602 54 204 1.7 2.6 0.02 0.11 0.03 83 1014.6
20260504140942 55 252 5.2 6.1 0.00 0.10 0.01 81 1015.0
20260504140601 55 252 5.2 6.1 0.00 0.10 0.01 81 1015.0
20260504110550 56 211 0.9 2.6 0.00 0.11 0.01 75 1015.1
20260504100550 55 196 2.6 2.6 0.00 0.11 0.01 82 1015.4
20260504080944 52 139 1.7 4.3 0.01 0.11 0.01 90 1015.4
20260504080550 52 139 1.7 4.3 0.01 0.11 0.01 90 1015.4
20260504041808 48 5 0.9 0.9 0.01 0.11 0.01 95 1014.2
20260504030307 48 5 0.9 1.7 0.00 0.10 0.00 94 1014.1
20260504024808 49 5 0.0 0.0 0.00 0.10 0.00 94 1014.1
20260504023308 49 5 0.0 0.0 0.00 0.10 0.00 95 1014.1
20260504021808 49 5 1.7 2.6 0.00 0.10 0.00 95 1014.1
20260504020307 49 5 1.7 2.6 0.00 0.10 0.00 95 1014.1
20260504011808 49 355 0.0 0.0 0.00 0.10 0.00 94 1014.2
20260504010309 49 355 0.9 0.9 0.00 0.10 0.00 94 1014.2
20260504003308 50 352 0.9 1.7 0.00 0.10 0.00 95 1014.2
20260504001808 50 0 0.0 0.0 0.00 0.11 0.00 95 1014.2
20260504000308 50 0 0.9 2.6 0.00 0.11 0.00 95 1014.2
20260503234808 50 352 0.0 0.9 0.00 0.11 0.00 95 1014.2
20260503233308 50 343 2.6 4.3 0.00 0.11 0.00 95 1014.2
20260503230307 50 350 1.7 2.6 0.00 0.11 0.00 95 1014.2
20260503223307 50 335 1.7 4.3 0.00 0.11 0.00 95 1014.2
20260503221807 50 331 2.6 4.3 0.00 0.12 0.00 96 1014.2
20260503220308 51 337 2.6 4.3 0.00 0.12 0.00 96 1014.1
20260503214807 51 353 0.9 1.7 0.00 0.13 0.13 96 1014.1
20260503211808 51 352 1.7 2.6 0.00 0.13 0.13 97 1014.1
20260503210310 51 18 2.6 2.6 0.00 0.13 0.13 97 1013.9
20260503204810 52 65 0.9 1.7 0.00 0.13 0.13 97 1013.8
20260503203308 52 65 1.7 2.6 0.00 0.13 0.13 96 1013.6
20260503201809 52 65 0.0 0.0 0.00 0.13 0.13 96 1013.4
20260503200309 52 65 0.0 0.9 0.00 0.13 0.13 96 1013.2
20260503184810 54 84 0.0 0.0 0.00 0.13 0.13 94 1012.6